Location: Shades State Park
(39.9310°N, 87.0690°W)
Time: 08:01:07
(UTC-05:00)

Daily predictions for brighter satellites

Satellite Brightness Start Highest point End
(mag) Time Altitude Azimuth Time Altitude Azimuth Time Altitude Azimuth
Cosmos 2034 Rocket 4.1 18:05:34 10° N 18:11:58 84° E 18:18:20 10° S
Cosmos 2219 Rocket 3.0 18:07:33 10° SSE 18:12:29 31° ESE 18:17:22 10° NE
CZ-2C R/B 2.5 18:07:52 10° SSE 18:12:55 83° ENE 18:17:50 10° N
MSX 3.9 18:10:20 10° SSE 18:15:57 61° ENE 18:21:35 10° N
Cosmos 2278 Rocket 3.4 18:11:55 10° N 18:16:07 21° NE 18:20:18 10° E
SMAP 3.0 18:11:31 10° SSE 18:16:10 78° ENE 18:20:50 10° N
Cosmos 44 Rocket 4.4 18:13:28 10° S 18:17:51 29° ESE 18:22:11 10° NE
Cosmos 2221 3.7 18:16:29 10° NNW 18:20:35 47° W 18:24:39 10° SSW
Cosmos 1908 3.3 18:18:12 10° N 18:22:03 59° E 18:25:53 10° SSE
SJ-12 4.3 18:19:24 10° S 18:23:32 70° W 18:27:40 10° NNW
OAO 3 Rocket 4.4 18:19:05 10° W 18:23:42 41° S 18:28:14 10° ESE
Cosmos 1763 Rocket 3.5 18:20:45 10° S 18:25:56 68° ESE 18:31:06 10° NNE
OTV 4 0.8 18:23:01 10° W 18:25:56 59° S 18:28:51 10° E
Cosmos 1844 4.2 18:21:29 10° N 18:26:55 41° ENE 18:32:20 10° SE
Cosmos 1484 Rocket 3.0 18:26:48 10° SSE 18:30:32 47° ENE 18:34:22 10° N
Cosmos 1674 2.7 18:30:07 10° S 18:33:55 87° E 18:37:47 10° N
COSMOS 2441 4.3 18:29:27 10° SSE 18:34:19 74° ENE 18:39:10 10° N
Cosmos 1766 Rocket 4.2 18:30:26 10° SSW 18:34:51 61° W 18:39:16 10° N
COSMOS 2428 2.8 18:29:22 10° SSW 18:35:06 90° WNW 18:40:51 10° NNE
Elektron 3 4.3 18:33:20 10° NW 18:38:43 75° NE 18:41:49 10° SE
Cosmos 2237 Rocket 2.9 18:36:37 10° SSE 18:41:33 33° ESE 18:46:31 10° NE
CZ-4 R/B 3.0 18:38:26 10° SSW 18:42:03 38° W 18:45:42 10° NNW
COSMO-SKYMED 1 2.6 18:40:08 10° NNE 18:44:26 59° E 18:48:43 10° S
YAOGAN 1 3.4 18:41:19 10° S 18:45:33 56° W 18:49:50 10° NNW
SL-16 R/B 3.8 18:42:53 10° SE 18:45:46 14° E 18:46:58 13° E
Cosmos 2084 3.7 18:42:23 10° S 18:46:05 40° ESE 18:48:51 15° NE
Lacrosse 5 rocket 3.0 18:43:52 10° N 18:46:08 15° NNE 18:47:13 14° NE
Cosmos 2228 Rocket 3.0 18:41:44 10° N 18:46:10 87° E 18:50:36 10° S
Hubble Space Telescope 3.4 18:45:08 10° SW 18:47:26 15° S 18:49:44 10° SSE
Cosmos 2279 Rocket 4.5 18:42:40 10° N 18:48:20 36° ENE 18:53:59 10° SE
SPOT 3 Rocket 4.3 18:43:45 10° S 18:48:47 57° W 18:53:53 10° NNW
Cosmos 1300 3.2 18:45:54 10° N 18:49:28 36° ENE 18:53:00 10° SE
Cosmos 540 Rocket 4.0 18:44:51 10° SSE 18:49:35 37° ESE 18:54:19 10° NE
Thor Agena Rocket 4.2 18:45:29 10° N 18:50:40 60° WNW 18:55:45 10° SSW
USA 215 3.3 18:45:31 10° ESE 18:51:58 64° NE 18:58:26 10° NW
Haruka 4.5 18:53:39 10° SW 18:57:17 33° SSE 19:04:42 13° E
Cosmos 1726 2.3 18:53:49 10° N 18:57:28 46° E 19:01:05 10° SSE
Meteor 2-2 Rocket 4.2 18:52:49 10° N 18:58:29 88° W 19:04:07 10° S
Cosmos 1125 Rocket 3.6 18:55:38 10° N 19:00:42 51° ENE 19:05:45 10° SE
Meteor 1-11 4.5 18:56:10 10° SSE 19:01:31 46° E 19:06:58 10° NNE
IDEFIX/ARIANE 42P 4.5 18:58:16 10° SSW 19:02:55 33° W 19:07:37 10° NNW
Cosmos 1328 3.7 19:02:31 10° S 19:06:27 82° E 19:10:25 10° N
Cosmos 332 Rocket 4.1 19:04:15 10° SSW 19:09:01 67° WNW 19:13:52 10° NNE
Spot 2 Rocket 4.3 19:07:53 10° SE 19:12:07 28° ENE 19:16:21 10° N
Meteor 1-28 Rocket 3.1 19:10:50 10° N 19:14:33 87° WNW 19:18:16 10° SSW
DNEPR-1 R/B 4.5 19:07:40 10° SSW 19:14:48 86° ESE 19:19:38 16° NNE
Cosmos 1844 Rocket 3.2 19:11:10 10° NNW 19:16:46 61° WSW 19:22:17 10° S
Cosmos 2058 2.9 19:12:52 10° S 19:16:54 58° E 19:20:15 14° NNE
SJ-6B 3.0 19:13:54 10° SSE 19:17:48 52° ENE 19:21:49 10° N
Cosmos 841 Rocket 4.4 19:13:47 10° SW 19:18:52 48° WNW 19:23:59 10° N
Abrixas 4.0 19:21:18 10° SSW 19:23:16 24° SSE 19:23:16 24° SSE
Cosmos 1980 3.7 19:22:46 10° SSW 19:28:26 90° SSE 19:33:12 15° NNE
ALOS 2.5 19:26:47 10° SE 19:31:09 42° ENE 19:35:34 10° N
Atlas Centaur 2 4.1 19:30:13 10° SW 19:32:18 13° SSW 19:34:14 10° S
Cosmos 44 3.3 19:30:18 10° SSW 19:35:36 88° ESE 19:38:08 31° NNE
Aureole 2 Rocket 2.5 19:32:19 10° S 19:35:45 62° ESE 19:35:45 62° ESE
Cosmos 1703 3.4 19:33:17 10° S 19:36:39 52° ESE 19:36:39 52° ESE
Cosmos 2151 3.6 19:33:14 10° SSW 19:37:21 56° W 19:41:31 10° N
Cosmos 1805 Rocket 3.5 19:33:02 10° S 19:37:25 60° E 19:38:40 42° NE
Cosmos 2333 Rocket 2.6 19:33:07 10° SW 19:38:43 63° WNW 19:43:40 14° NNE
CENTAUR R/B 3.8 19:33:06 10° WSW 19:38:43 35° NW 19:44:50 11° NNE
Cosmos 371 Rocket 4.3 19:35:24 10° SW 19:39:59 45° WNW 19:44:37 10° N
BREEZE-M DEB (TANK) 3.1 19:39:33 10° W 19:41:18 26° NW 19:41:18 26° NW
FENGYUN 3A 3.6 19:38:26 10° SSE 19:43:39 57° ENE 19:48:55 10° N
Cosmos 1151 Rocket 4.3 19:40:49 10° NNW 19:44:51 42° W 19:48:52 10° SSW
SL-19 R/B 4.2 19:39:22 10° SSE 19:45:24 75° ENE 19:51:05 10° NNW
Cosmos 1340 Rocket 2.8 19:44:47 10° SSW 19:48:44 76° W 19:49:44 48° N
Meteor 1-27 4.5 19:44:17 10° NNW 19:50:04 73° W 19:55:52 10° S
Lacrosse 5 4.1 19:52:19 10° NW 19:54:30 13° NNW 19:55:44 12° N
BREEZE-M DEB (TANK) 4.0 19:52:45 10° WSW 19:54:00 27° W 19:54:00 27° W
Cosmos 2219 Rocket 3.6 19:51:09 10° SW 19:56:18 36° WNW 20:01:24 10° N
Cosmos 2278 Rocket 2.6 19:55:03 10° NNW 20:00:38 61° WSW 20:06:12 10° S
OTV 4 2.9 19:59:03 10° W 20:00:26 22° WSW 20:00:26 22° WSW
Timation 1 Rocket 4.2 19:56:44 10° NNW 20:02:46 73° ENE 20:04:14 52° SE
Sich 1 4.2 19:59:11 10° S 20:01:42 34° S 20:01:42 34° S
Resurs 01 Rocket 2.7 20:08:42 36° NNW 20:08:42 36° NNW 20:11:23 10° NNW
Cosmos 1626 4.3 20:10:02 10° SSW 20:11:11 19° SSW 20:11:11 19° SSW
Milstar 3 4.4 20:12:21 10° WSW 20:17:39 25° SSW 20:21:24 17° SSE
H-2A ROCKET BODY 3.6 20:08:25 10° WSW 20:24:13 36° SSW 20:25:47 32° SSE
Cosmos 2237 Rocket 3.6 20:20:27 10° WSW 20:25:31 34° WNW 20:28:35 21° N
Lacrosse 5 rocket 3.6 20:21:56 10° NW 20:22:57 18° NW 20:22:57 18° NW
SL-16 R/B 2.3 20:23:30 10° SSW 20:28:56 72° W 20:28:56 72° W
Cosmos 2297 4.1 20:32:52 10° NNW 20:37:58 60° W 20:37:58 60° W
